Time,TemperatureF,DewpointF,PressureIn,WindDirection,WindDirectionDegrees,WindSpeedMPH,WindSpeedGustMPH,Humidity,HourlyPrecipIn,Conditions,Clouds,dailyrainin,SolarRadiationWatts/m^2,SoftwareType,DateUTC
2013-03-05 00:29:00,30.5,24.1,29.75,WNW,291,2.0,16.0,77,0.00,CLR,,0.00,0.0,WeatherDisplay:10.37,2013-03-05 05:29:00,
2013-03-05 00:59:00,30.3,24.0,29.75,West,272,3.0,12.0,77,0.00,CLR,,0.00,0.0,WeatherDisplay:10.37,2013-03-05 05:59:00,
2013-03-05 01:29:00,30.4,24.1,29.76,WNW,290,3.0,9.0,77,0.00,CLR,,0.00,0.0,WeatherDisplay:10.37,2013-03-05 06:29:00,
2013-03-05 01:59:00,30.4,23.7,29.77,WNW,285,3.0,15.0,76,0.00,CLR,,0.00,0.0,WeatherDisplay:10.37,2013-03-05 06:59:00,
2013-03-05 02:29:00,30.4,23.7,29.78,WNW,285,5.0,13.0,76,0.00,CLR,,0.00,0.0,WeatherDisplay:10.37,2013-03-05 07:29:00,
2013-03-05 02:59:00,30.1,23.5,29.78,WNW,288,3.0,13.0,76,0.00,CLR,,0.00,0.0,WeatherDisplay:10.37,2013-03-05 07:59:00,
2013-03-05 03:29:00,29.7,23.4,29.80,West,280,5.0,12.0,77,0.00,CLR,,0.00,0.0,WeatherDisplay:10.37,2013-03-05 08:29:00,
2013-03-05 03:59:00,29.6,23.3,29.81,WNW,295,5.0,12.0,77,0.00,CLR,,0.00,0.0,WeatherDisplay:10.37,2013-03-05 08:59:00,
2013-03-05 04:29:00,30.0,23.7,29.82,NW,309,3.0,12.0,77,0.00,CLR,,0.00,0.0,WeatherDisplay:10.37,2013-03-05 09:29:00,
2013-03-05 04:59:00,30.4,24.1,29.83,WNW,284,3.0,12.0,77,0.00,CLR,,0.00,0.0,WeatherDisplay:10.37,2013-03-05 09:59:00,
2013-03-05 05:29:00,30.5,24.1,29.85,WNW,283,3.0,9.0,77,0.00,CLR,,0.00,0.0,WeatherDisplay:10.37,2013-03-05 10:29:00,
2013-03-05 05:59:00,30.6,24.2,29.86,WNW,284,2.0,10.0,77,0.00,OVC,,0.00,0.0,WeatherDisplay:10.37,2013-03-05 10:59:00,
2013-03-05 06:29:00,30.6,24.2,29.87,WNW,289,2.0,10.0,77,0.00,BKN,,0.00,9.0,WeatherDisplay:10.37,2013-03-05 11:29:00,
2013-03-05 06:59:00,30.6,24.6,29.88,NW,315,1.0,12.0,78,0.00,FEW,,0.00,74.0,WeatherDisplay:10.37,2013-03-05 11:59:00,
2013-03-05 07:29:00,31.4,24.7,29.90,WNW,289,2.0,7.0,76,0.00,CLR,,0.00,155.0,WeatherDisplay:10.37,2013-03-05 12:29:00,
2013-03-05 07:59:00,32.8,25.7,29.91,NW,307,1.0,10.0,75,0.00,FEW,,0.00,218.0,WeatherDisplay:10.37,2013-03-05 12:59:00,
2013-03-05 08:29:00,34.2,26.5,29.92,WNW,288,5.0,13.0,73,0.00,CLR,,0.00,350.0,WeatherDisplay:10.37,2013-03-05 13:29:00,
2013-03-05 08:59:00,34.8,27.1,29.92,NW,307,5.0,14.0,73,0.00,SCT,,0.00,229.0,WeatherDisplay:10.37,2013-03-05 13:59:00,
2013-03-05 09:29:00,36.4,27.9,29.93,WNW,301,3.0,12.0,71,0.00,CLR,,0.00,257.0,WeatherDisplay:10.37,2013-03-05 14:29:00,
2013-03-05 09:59:00,38.1,29.2,29.93,NNW,346,2.0,14.0,70,0.00,SCT,,0.00,302.0,WeatherDisplay:10.37,2013-03-05 14:59:00,
2013-03-05 10:29:00,38.6,29.3,29.94,NW,312,5.0,14.0,69,0.00,SCT,,0.00,373.0,WeatherDisplay:10.37,2013-03-05 15:29:00,
2013-03-05 10:59:00,40.2,30.5,29.94,NNW,330,3.0,12.0,68,0.00,SCT,,0.00,540.0,WeatherDisplay:10.37,2013-03-05 15:59:00,
2013-03-05 11:29:00,40.5,30.4,29.94,NNW,327,3.0,12.0,67,0.00,SCT,,0.00,334.0,WeatherDisplay:10.37,2013-03-05 16:29:00,
2013-03-05 11:59:00,41.3,30.4,29.95,North,356,1.0,9.0,65,0.00,BKN,,0.00,285.0,WeatherDisplay:10.37,2013-03-05 16:59:00,
2013-03-05 12:29:00,41.6,30.7,29.95,West,277,1.0,8.0,65,0.00,BKN,,0.00,279.0,WeatherDisplay:10.37,2013-03-05 17:29:00,
2013-03-05 12:59:00,42.9,31.6,29.95,NNE,15,0.0,7.0,64,0.00,BKN,,0.00,148.0,WeatherDisplay:10.37,2013-03-05 17:59:00,
2013-03-05 13:29:00,42.4,31.8,29.95,NNW,336,1.0,6.0,66,0.00,BKN,,0.00,144.0,WeatherDisplay:10.37,2013-03-05 18:29:00,
2013-03-05 13:59:00,43.6,32.6,29.96,ENE,59,3.0,7.0,65,0.00,SCT,,0.00,318.0,WeatherDisplay:10.37,2013-03-05 18:59:00,
2013-03-05 14:29:00,43.9,34.4,29.97,East,94,2.0,9.0,69,0.00,BKN,,0.00,207.0,WeatherDisplay:10.37,2013-03-05 19:29:00,
2013-03-05 14:59:00,42.7,33.9,29.98,NNE,25,3.0,9.0,71,0.00,BKN,,0.00,132.0,WeatherDisplay:10.37,2013-03-05 19:59:00,
2013-03-05 15:29:00,41.8,33.8,29.99,ENE,58,0.0,6.0,73,0.00,BKN,,0.00,79.0,WeatherDisplay:10.37,2013-03-05 20:29:00,
2013-03-05 15:59:00,41.4,33.7,30.00,ENE,63,0.0,7.0,74,0.00,BKN,,0.00,97.0,WeatherDisplay:10.37,2013-03-05 20:59:00,
2013-03-05 16:29:00,41.1,34.1,30.01,NE,45,1.0,4.0,76,0.00,BKN,,0.00,84.0,WeatherDisplay:10.37,2013-03-05 21:29:00,
2013-03-05 16:59:00,41.0,34.6,30.02,NE,52,2.0,6.0,78,0.00,FEW,,0.00,65.0,WeatherDisplay:10.37,2013-03-05 21:59:00,
2013-03-05 17:29:00,39.9,33.6,30.02,NE,51,2.0,7.0,78,0.00,SCT,,0.00,7.0,WeatherDisplay:10.37,2013-03-05 22:29:00,
2013-03-05 17:59:00,38.1,32.8,30.03,ENE,61,0.0,3.0,81,0.00,CLR,,0.00,0.0,WeatherDisplay:10.37,2013-03-05 22:59:00,
2013-03-05 18:29:00,35.5,31.5,30.04,ENE,62,0.0,0.0,85,0.00,CLR,,0.00,0.0,WeatherDisplay:10.37,2013-03-05 23:29:00,
2013-03-05 18:59:00,33.9,30.7,30.04,ENE,62,0.0,0.0,88,0.00,CLR,,0.00,0.0,WeatherDisplay:10.37,2013-03-05 23:59:00,
2013-03-05 19:29:00,32.2,29.6,30.05,ENE,62,0.0,1.0,90,0.00,CLR,,0.00,0.0,WeatherDisplay:10.37,2013-03-06 00:29:00,
2013-03-05 19:59:00,30.8,28.8,30.06,ENE,62,0.0,0.0,92,0.00,CLR,,0.00,0.0,WeatherDisplay:10.37,2013-03-06 00:59:00,
2013-03-05 20:29:00,30.4,28.6,30.05,ENE,62,0.0,0.0,93,0.00,CLR,,0.00,0.0,WeatherDisplay:10.37,2013-03-06 01:29:00,
2013-03-05 20:59:00,31.0,29.5,30.05,ENE,62,0.0,0.0,94,0.00,CLR,,0.00,0.0,WeatherDisplay:10.37,2013-03-06 01:59:00,
2013-03-05 21:29:00,31.4,29.9,30.04,ENE,61,0.0,0.0,94,0.00,CLR,,0.00,0.0,WeatherDisplay:10.37,2013-03-06 02:29:00,
2013-03-05 21:59:00,31.3,29.8,30.04,ENE,62,0.0,1.0,94,0.00,CLR,,0.00,0.0,WeatherDisplay:10.37,2013-03-06 02:59:00,
2013-03-05 22:29:00,30.8,29.3,30.06,ENE,62,0.0,1.0,94,0.00,CLR,,0.00,0.0,WeatherDisplay:10.37,2013-03-06 03:29:00,
2013-03-05 22:59:00,31.2,29.7,30.07,ENE,62,0.0,0.0,94,0.00,CLR,,0.00,0.0,WeatherDisplay:10.37,2013-03-06 03:59:00,
2013-03-05 23:29:00,31.6,30.3,30.07,ENE,62,0.0,0.0,95,0.00,CLR,,0.00,0.0,WeatherDisplay:10.37,2013-03-06 04:29:00,